#timestamp,LO_Frequency,Hit,StdDev 
1658473215.2,286047000.0,N
1658473235.0,286047000.7,N
1658473235.9,286047000.7,N
1658473255.8,286047002.6,N
1658473275.6,286047000.6,N
1658473295.5,286046996.8,N
1658473315.3,286046997.4,N
1658473335.1,286046997.8,N
1658473355.9,286046997.8,N
1658473375.7,286046997.4,N
1658473395.5,286046998.5,N
1658473415.4,286047001.3,N
1658473435.2,286047000.1,N
1658473455.1,286046998.5,N
1658473456.0,286046998.5,N
1658473475.8,286047000.5,N
1658473495.6,286046998.1,N
1658473515.5,286046997.9,N
1658473535.3,286046998.0,N
1658473555.2,286047000.6,N
1658473575.9,286047000.5,N
1658473595.7,286047001.0,N
1658473615.6,286046998.4,N
1658473635.4,286046999.8,N
1658473655.2,286047002.7,N
1658473675.1,286046999.0,N
1658473676.0,286046999.0,N
1658473695.8,286046996.6,N
1658473715.7,286047001.1,N
1658473735.5,286047000.6,N
1658473755.3,286047000.6,N
1658473775.2,286046996.5,N
1658473795.0,286047000.5,N
1658473795.9,286047000.5,N
1658473815.8,286047000.8,N
1658473835.6,286046995.0,Y
1658473855.4,286046997.9,P
1658473875.3,286046997.9,P
1658473895.1,286046997.5,P
1658473915.8,286046997.6,Y
1658473965.7,286046999.5,E
1658473975.6,286046997.4,N
1658473995.5,286046995.0,P
1658474015.3,286046993.7,P
1658474035.1,286046991.9,Y
1658474055.9,286046997.2,P
1658474075.7,286046997.4,N
1658474095.6,286046995.1,P
1658474115.4,286046997.2,N
1658474135.2,286046998.8,N
1658474155.1,286047002.8,N
1658474156.0,286047002.8,N
1658474175.8,286047004.2,N
1658474195.6,286047005.0,N
1658474215.5,286047004.8,N
1658474235.3,286047004.7,N
1658474255.2,286047007.4,N
1658474275.9,286047006.4,N
1658474295.7,286047008.5,N
1658474315.6,286047008.0,N
1658474335.4,286047006.4,N
1658474355.2,286047010.7,N
1658474375.1,286047006.4,N
1658474376.0,286047006.4,N
1658474395.8,286047004.9,N
1658474415.7,286047007.5,N
1658474435.5,286047005.3,N
1658474455.3,286047007.3,N
1658474475.2,286047006.4,N
1658474495.0,286047003.2,N
1658474495.9,286047003.2,N
1658474515.7,286047005.3,N
1658474535.6,286047004.8,N
1658474555.4,286047006.8,N
1658474575.3,286047006.6,N
1658474595.1,286047008.4,N
1658474626.0,286047012.3,E
1658474635.1,286047005.1,N
1658474636.0,286047005.1,P
1658474655.8,286046997.4,P
1658474675.6,286046996.7,N
1658474695.5,286046998.9,N
1658474715.3,286046996.6,N
1658474735.1,286046999.5,N
1658474755.9,286046997.5,N
1658474775.7,286046993.8,N
1658474795.6,286046995.4,N
1658474815.4,286046993.3,N
1658474835.2,286046996.3,N
1658474855.1,286046991.9,N
1658474856.0,286046991.9,N
1658474875.8,286046991.2,N
1658474895.6,286046990.7,N
1658474915.5,286046992.9,N
1658474935.3,286046988.8,N
1658474955.2,286046985.6,Y
1658474975.9,286046989.3,P
1658474995.7,286046988.7,P
1658475015.6,286046989.0,P
1658475035.4,286046988.5,Y
1658475055.3,286046998.6,P
1658475075.1,286047004.3,N
1658475076.0,286047004.3,N
1658475095.8,286047001.8,N
1658475115.7,286047004.2,N
1658475135.5,286047000.1,N
1658475155.3,286047000.8,N
1658475175.2,286046998.6,N
1658475195.0,286046999.3,N
1658475195.9,286046999.3,N
1658475215.8,286046997.2,N
1658475235.6,286046999.5,N
1658475255.4,286046996.9,N
1658475275.3,286046999.1,N
1658475295.1,286046999.0,N
1658475315.9,286047000.7,N
1658475335.7,286047004.4,N
1658475355.5,286047000.7,N
1658475375.4,286047005.5,N
1658475395.2,286047001.6,N
1658475415.0,286047000.8,N
1658475415.9,286047000.8,N
1658475435.8,286047001.2,N
1658475455.6,286047000.5,N
1658475475.5,286046999.6,N
1658475495.3,286046997.6,N
1658475515.1,286046998.2,N
1658475535.9,286047000.1,N
1658475555.7,286047000.2,N
1658475575.5,286047002.6,N
1658475595.4,286047004.4,N
1658475615.2,286047002.5,N
1658475635.1,286047000.7,N
1658475636.0,286047000.7,N
1658475655.8,286047003.6,N
1658475675.6,286047004.5,N
1658475695.5,286047006.6,Y
1658475715.3,286047007.2,P
1658475735.1,286047005.1,N
1658475755.9,286047007.7,N
1658475775.7,286047006.1,N
1658475795.6,286047006.8,N
1658475815.4,286047009.8,Y
1658475835.2,286047002.9,P
1658475855.1,286047000.2,N
1658475856.0,286047000.2,N
1658475875.8,286047003.5,N
1658475895.7,286047003.7,N
1658475915.5,286047004.2,N
1658475935.3,286047000.4,N
1658475955.2,286047000.3,N
1658475975.0,286047001.5,N
1658475975.9,286047001.5,N
1658475995.8,286047007.6,Y
1658476015.6,286047001.2,P
1658476035.4,286046997.4,P
1658476055.3,286046997.3,N
1658476075.1,286046995.5,N
1658476076.0,286046995.5,N
1658476095.8,286046997.4,N
1658476115.7,286046997.5,N
1658476135.5,286046995.6,N
1658476155.4,286046996.9,N
1658476175.2,286046997.5,N
1658476195.0,286046995.0,N
1658476195.9,286046995.0,N
1658476215.8,286046996.2,N
1658476235.6,286046994.1,N
1658476255.4,286046990.5,Y
1658476275.3,286046996.3,P
1658476295.1,286046995.4,P
1658476315.9,286046997.7,P
1658476335.7,286046999.4,N
1658476355.5,286046999.2,N
1658476375.4,286047000.7,N
1658476395.2,286047000.0,N
1658476415.0,286047000.8,N
1658476415.9,286047000.8,N
1658476435.8,286047000.6,N
1658476455.6,286047002.8,N
1658476475.5,286047001.5,N
1658476495.3,286047000.2,N
1658476515.1,286046999.9,N
1658476535.9,286046999.1,N
1658476555.7,286046999.1,N
1658476575.5,286046997.5,N
1658476595.4,286046996.3,N
1658476615.2,286046996.3,N
1658476635.1,286046993.5,Y
1658476636.0,286046993.5,P
1658476655.8,286046997.6,N
1658476675.6,286046997.9,N
1658476695.5,286046995.1,N
1658476715.3,286046996.9,N
1658476735.1,286046999.9,N
1658476755.9,286047002.8,N
1658476775.7,286046998.3,N
1658476795.6,286046998.9,N
